Year,Month,Day,Hour,Minute,Value (Times are PST for temperature in C)
2014,11,14,00,00,-1.30
2014,11,14,00,01,-1.30
2014,11,14,00,02,-1.30
2014,11,14,00,03,-1.20
2014,11,14,00,04,-1.10
2014,11,14,00,05,-1.10
2014,11,14,00,06,-1.20
2014,11,14,00,07,-1.20
2014,11,14,00,08,-1.20
2014,11,14,00,09,-1.20
2014,11,14,00,10,-1.20
2014,11,14,00,11,-1.10
2014,11,14,00,12,-1.10
2014,11,14,00,13,-1.10
2014,11,14,00,14,-1.20
2014,11,14,00,15,-1.20
2014,11,14,00,16,-1.20
2014,11,14,00,17,-1.30
2014,11,14,00,18,-1.30
2014,11,14,00,19,-1.30
2014,11,14,00,20,-1.30
2014,11,14,00,21,-1.30
2014,11,14,00,22,-1.30
2014,11,14,00,23,-1.40
2014,11,14,00,24,-1.40
2014,11,14,00,25,-1.40
2014,11,14,00,26,-1.40
2014,11,14,00,27,-1.40
2014,11,14,00,28,-1.40
2014,11,14,00,29,-1.40
2014,11,14,00,30,-1.30
2014,11,14,00,31,-1.20
2014,11,14,00,32,-1.10
2014,11,14,00,33,-1.20
2014,11,14,00,34,-1.20
2014,11,14,00,35,-1.20
2014,11,14,00,36,-1.10
2014,11,14,00,37,-1.10
2014,11,14,00,38,-1.00
2014,11,14,00,39,-1.00
2014,11,14,00,40,-1.10
2014,11,14,00,41,-1.10
2014,11,14,00,42,-1.10
2014,11,14,00,43,-1.10
2014,11,14,00,44,-1.10
2014,11,14,00,45,-1.10
2014,11,14,00,46,-1.20
2014,11,14,00,47,-1.20
2014,11,14,00,48,-1.20
2014,11,14,00,49,-1.10
2014,11,14,00,50,-1.10
2014,11,14,00,51,-1.20
2014,11,14,00,52,-1.20
2014,11,14,00,53,-1.20
2014,11,14,00,54,-1.20
2014,11,14,00,55,-1.30
2014,11,14,00,56,-1.30
2014,11,14,00,57,-1.30
2014,11,14,00,58,-1.30
2014,11,14,00,59,-1.30
2014,11,14,01,00,-1.30
2014,11,14,01,01,-1.30
2014,11,14,01,02,-1.30
2014,11,14,01,03,-1.30
2014,11,14,01,04,-1.30
2014,11,14,01,05,-1.30
2014,11,14,01,06,-1.40
2014,11,14,01,07,-1.40
2014,11,14,01,08,-1.40
2014,11,14,01,09,-1.50
2014,11,14,01,10,-1.50
2014,11,14,01,11,-1.50
2014,11,14,01,12,-1.40
2014,11,14,01,13,-1.50
2014,11,14,01,14,-1.40
2014,11,14,01,15,-1.40
2014,11,14,01,16,-1.40
2014,11,14,01,17,-1.40
2014,11,14,01,18,-1.40
2014,11,14,01,19,-1.40
2014,11,14,01,20,-1.40
2014,11,14,01,21,-1.40
2014,11,14,01,22,-1.40
2014,11,14,01,23,-1.40
2014,11,14,01,24,-1.50
2014,11,14,01,25,-1.50
2014,11,14,01,26,-1.40
2014,11,14,01,27,-1.40
2014,11,14,01,28,-1.30
2014,11,14,01,29,-1.40
2014,11,14,01,30,-1.40
2014,11,14,01,31,-1.40
2014,11,14,01,32,-1.30
2014,11,14,01,33,-1.30
2014,11,14,01,34,-1.30
2014,11,14,01,35,-1.30
2014,11,14,01,36,-1.30
2014,11,14,01,37,-1.30
2014,11,14,01,38,-1.30
2014,11,14,01,39,-1.30
2014,11,14,01,40,-1.30
2014,11,14,01,41,-1.30
2014,11,14,01,42,-1.40
2014,11,14,01,43,-1.40
2014,11,14,01,44,-1.40
2014,11,14,01,45,-1.40
2014,11,14,01,46,-1.40
2014,11,14,01,47,-1.40
2014,11,14,01,48,-1.40
2014,11,14,01,49,-1.40
2014,11,14,01,50,-1.40
2014,11,14,01,51,-1.40
2014,11,14,01,52,-1.40
2014,11,14,01,53,-1.40
2014,11,14,01,54,-1.40
2014,11,14,01,55,-1.40
2014,11,14,01,56,-1.40
2014,11,14,01,57,-1.40
2014,11,14,01,58,-1.40
2014,11,14,01,59,-1.40
2014,11,14,02,00,-1.40
2014,11,14,02,01,-1.50
2014,11,14,02,02,-1.50
2014,11,14,02,03,-1.50
2014,11,14,02,04,-1.60
2014,11,14,02,05,-1.60
2014,11,14,02,06,-1.60
2014,11,14,02,07,-1.60
2014,11,14,02,08,-1.70
2014,11,14,02,09,-1.70
2014,11,14,02,10,-1.60
2014,11,14,02,11,-1.60
2014,11,14,02,12,-1.60
2014,11,14,02,13,-1.50
2014,11,14,02,14,-1.50
2014,11,14,02,15,-1.40
2014,11,14,02,16,-1.40
2014,11,14,02,17,-1.40
2014,11,14,02,18,-1.40
2014,11,14,02,19,-1.40
2014,11,14,02,20,-1.40
2014,11,14,02,21,-1.40
2014,11,14,02,22,-1.40
2014,11,14,02,23,-1.40
2014,11,14,02,24,-1.40
2014,11,14,02,25,-1.40
2014,11,14,02,26,-1.50
2014,11,14,02,27,-1.50
2014,11,14,02,28,-1.50
2014,11,14,02,29,-1.50
2014,11,14,02,30,-1.60
2014,11,14,02,31,-1.50
2014,11,14,02,32,-1.50
2014,11,14,02,33,-1.40
2014,11,14,02,34,-1.40
2014,11,14,02,35,-1.40
2014,11,14,02,36,-1.30
2014,11,14,02,37,-1.30
2014,11,14,02,38,-1.30
2014,11,14,02,39,-1.30
2014,11,14,02,40,-1.30
2014,11,14,02,41,-1.40
2014,11,14,02,42,-1.40
2014,11,14,02,43,-1.40
2014,11,14,02,44,-1.40
2014,11,14,02,45,-1.30
2014,11,14,02,46,-1.30
2014,11,14,02,47,-1.30
2014,11,14,02,48,-1.20
2014,11,14,02,49,-1.20
2014,11,14,02,50,-1.20
2014,11,14,02,51,-1.20
2014,11,14,02,52,-1.20
2014,11,14,02,53,-1.20
2014,11,14,02,54,-1.20
2014,11,14,02,55,-1.20
2014,11,14,02,56,-1.20
2014,11,14,02,57,-1.30
2014,11,14,02,58,-1.30
2014,11,14,02,59,-1.30
2014,11,14,03,00,-1.40
2014,11,14,03,01,-1.40
2014,11,14,03,02,-1.30
2014,11,14,03,03,-1.30
2014,11,14,03,04,-1.40
2014,11,14,03,05,-1.40
2014,11,14,03,06,-1.40
2014,11,14,03,07,-1.40
2014,11,14,03,08,-1.40
2014,11,14,03,09,-1.40
2014,11,14,03,10,-1.40
2014,11,14,03,11,-1.50
2014,11,14,03,12,-1.50
2014,11,14,03,13,-1.50
2014,11,14,03,14,-1.50
2014,11,14,03,15,-1.50
2014,11,14,03,16,-1.60
2014,11,14,03,17,-1.60
2014,11,14,03,18,-1.60
2014,11,14,03,19,-1.60
2014,11,14,03,20,-1.60
2014,11,14,03,21,-1.50
2014,11,14,03,22,-1.40
2014,11,14,03,23,-1.40
2014,11,14,03,24,-1.30
2014,11,14,03,25,-1.30
2014,11,14,03,26,-1.30
2014,11,14,03,27,-1.40
2014,11,14,03,28,-1.40
2014,11,14,03,29,-1.40
2014,11,14,03,30,-1.40
2014,11,14,03,31,-1.40
2014,11,14,03,32,-1.30
2014,11,14,03,33,-1.30
2014,11,14,03,34,-1.30
2014,11,14,03,35,-1.30
2014,11,14,03,36,-1.40
2014,11,14,03,37,-1.40
2014,11,14,03,38,-1.40
2014,11,14,03,39,-1.40
2014,11,14,03,40,-1.40
2014,11,14,03,41,-1.40
2014,11,14,03,42,-1.40
2014,11,14,03,43,-1.40
2014,11,14,03,44,-1.50
2014,11,14,03,45,-1.50
2014,11,14,03,46,-1.60
2014,11,14,03,47,-1.50
2014,11,14,03,48,-1.50
2014,11,14,03,49,-1.50
2014,11,14,03,50,-1.60
2014,11,14,03,51,-1.60
2014,11,14,03,52,-1.60
2014,11,14,03,53,-1.60
2014,11,14,03,54,-1.70
2014,11,14,03,55,-1.70
2014,11,14,03,56,-1.60
2014,11,14,03,57,-1.60
2014,11,14,03,58,-1.60
2014,11,14,03,59,-1.60
2014,11,14,04,00,-1.60
2014,11,14,04,01,-1.60
2014,11,14,04,02,-1.60
2014,11,14,04,03,-1.60
2014,11,14,04,04,-1.60
2014,11,14,04,05,-1.60
2014,11,14,04,06,-1.60
2014,11,14,04,07,-1.60
2014,11,14,04,08,-1.60
2014,11,14,04,09,-1.70
2014,11,14,04,10,-1.70
2014,11,14,04,11,-1.60
2014,11,14,04,12,-1.60
2014,11,14,04,13,-1.50
2014,11,14,04,14,-1.50
2014,11,14,04,15,-1.40
2014,11,14,04,16,-1.40
2014,11,14,04,17,-1.40
2014,11,14,04,18,-1.50
2014,11,14,04,19,-1.50
2014,11,14,04,20,-1.60
2014,11,14,04,21,-1.60
2014,11,14,04,22,-1.50
2014,11,14,04,23,-1.50
2014,11,14,04,24,-1.50
2014,11,14,04,25,-1.60
2014,11,14,04,26,-1.60
2014,11,14,04,27,-1.60
2014,11,14,04,28,-1.60
2014,11,14,04,29,-1.60
2014,11,14,04,30,-1.60
2014,11,14,04,31,-1.60
2014,11,14,04,32,-1.50
2014,11,14,04,33,-1.50
2014,11,14,04,34,-1.50
2014,11,14,04,35,-1.60
2014,11,14,04,36,-1.60
2014,11,14,04,37,-1.70
2014,11,14,04,38,-1.70
2014,11,14,04,39,-1.70
2014,11,14,04,40,-1.70
2014,11,14,04,41,-1.80
2014,11,14,04,42,-1.80
2014,11,14,04,43,-1.70
2014,11,14,04,44,-1.70
2014,11,14,04,45,-1.70
2014,11,14,04,46,-1.70
2014,11,14,04,47,-1.60
2014,11,14,04,48,-1.60
2014,11,14,04,49,-1.60
2014,11,14,04,50,-1.50
2014,11,14,04,51,-1.50
2014,11,14,04,52,-1.40
2014,11,14,04,53,-1.40
2014,11,14,04,54,-1.50
2014,11,14,04,55,-1.50
2014,11,14,04,56,-1.60
2014,11,14,04,57,-1.50
2014,11,14,04,58,-1.50
2014,11,14,04,59,-1.40
2014,11,14,05,00,-1.40
2014,11,14,05,01,-1.40
2014,11,14,05,02,-1.40
2014,11,14,05,03,-1.40
2014,11,14,05,04,-1.40
2014,11,14,05,05,-1.40
2014,11,14,05,06,-1.50
2014,11,14,05,07,-1.50
2014,11,14,05,08,-1.50
2014,11,14,05,09,-1.60
2014,11,14,05,10,-1.60
2014,11,14,05,11,-1.60
2014,11,14,05,12,-1.60
2014,11,14,05,13,-1.60
2014,11,14,05,14,-1.60
2014,11,14,05,15,-1.70
2014,11,14,05,16,-1.70
2014,11,14,05,17,-1.70
2014,11,14,05,18,-1.70
2014,11,14,05,19,-1.70
2014,11,14,05,20,-1.70
2014,11,14,05,21,-1.70
2014,11,14,05,22,-1.70
2014,11,14,05,23,-1.70
2014,11,14,05,24,-1.70
2014,11,14,05,25,-1.70
2014,11,14,05,26,-1.70
2014,11,14,05,27,-1.70
2014,11,14,05,28,-1.70
2014,11,14,05,29,-1.70
2014,11,14,05,30,-1.70
2014,11,14,05,31,-1.70
2014,11,14,05,32,-1.70
2014,11,14,05,33,-1.60
2014,11,14,05,34,-1.60
2014,11,14,05,35,-1.60
2014,11,14,05,36,-1.60
2014,11,14,05,37,-1.70
2014,11,14,05,38,-1.70
2014,11,14,05,39,-1.70
2014,11,14,05,40,-1.70
2014,11,14,05,41,-1.70
2014,11,14,05,42,-1.60
2014,11,14,05,43,-1.60
2014,11,14,05,44,-1.60
2014,11,14,05,45,-1.60
2014,11,14,05,46,-1.60
2014,11,14,05,47,-1.60
2014,11,14,05,48,-1.60
2014,11,14,05,49,-1.60
2014,11,14,05,50,-1.60
2014,11,14,05,51,-1.60
2014,11,14,05,52,-1.60
2014,11,14,05,53,-1.60
2014,11,14,05,54,-1.60
2014,11,14,05,55,-1.60
2014,11,14,05,56,-1.60
2014,11,14,05,57,-1.60
2014,11,14,05,58,-1.60
2014,11,14,05,59,-1.50
2014,11,14,06,00,-1.50
2014,11,14,06,01,-1.50
2014,11,14,06,02,-1.50
2014,11,14,06,03,-1.50
2014,11,14,06,04,-1.50
2014,11,14,06,05,-1.50
2014,11,14,06,06,-1.50
2014,11,14,06,07,-1.60
2014,11,14,06,08,-1.60
2014,11,14,06,09,-1.60
2014,11,14,06,10,-1.60
2014,11,14,06,11,-1.60
2014,11,14,06,12,-1.60
2014,11,14,06,13,-1.60
2014,11,14,06,14,-1.60
2014,11,14,06,15,-1.60
2014,11,14,06,16,-1.60
2014,11,14,06,17,-1.60
2014,11,14,06,18,-1.60
2014,11,14,06,19,-1.60
2014,11,14,06,20,-1.60
2014,11,14,06,21,-1.70
2014,11,14,06,22,-1.70
2014,11,14,06,23,-1.70
2014,11,14,06,24,-1.80
2014,11,14,06,25,-1.70
2014,11,14,06,26,-1.70
2014,11,14,06,27,-1.70
2014,11,14,06,28,-1.70
2014,11,14,06,29,-1.80
2014,11,14,06,30,-1.80
2014,11,14,06,31,-1.80
2014,11,14,06,32,-1.80
2014,11,14,06,33,-1.80
2014,11,14,06,34,-1.80
2014,11,14,06,35,-1.80
2014,11,14,06,36,-1.80
2014,11,14,06,37,-1.80
2014,11,14,06,38,-1.80
2014,11,14,06,39,-1.80
2014,11,14,06,40,-1.80
2014,11,14,06,41,-1.80
2014,11,14,06,42,-1.80
2014,11,14,06,43,-1.80
2014,11,14,06,44,-1.80
2014,11,14,06,45,-1.80
2014,11,14,06,46,-1.80
2014,11,14,06,47,-1.80
2014,11,14,06,48,-1.80
2014,11,14,06,49,-1.80
2014,11,14,06,50,-1.90
2014,11,14,06,51,-1.90
2014,11,14,06,52,-1.90
2014,11,14,06,53,-1.90
2014,11,14,06,54,-1.90
2014,11,14,06,55,-1.90
2014,11,14,06,56,-1.80
2014,11,14,06,57,-1.80
2014,11,14,06,58,-1.80
2014,11,14,06,59,-1.80
2014,11,14,07,00,-1.90
2014,11,14,07,01,-1.90
2014,11,14,07,02,-1.90
2014,11,14,07,03,-1.90
2014,11,14,07,04,-1.90
2014,11,14,07,05,-1.80
2014,11,14,07,06,-1.80
2014,11,14,07,07,-1.80
2014,11,14,07,08,-1.80
2014,11,14,07,09,-1.80
2014,11,14,07,10,-1.80
2014,11,14,07,11,-1.80
2014,11,14,07,12,-1.80
2014,11,14,07,13,-1.80
2014,11,14,07,14,-1.80
2014,11,14,07,15,-1.80
2014,11,14,07,16,-1.80
2014,11,14,07,17,-1.80
2014,11,14,07,18,-1.80
2014,11,14,07,19,-1.80
2014,11,14,07,20,-1.80
2014,11,14,07,21,-1.80
2014,11,14,07,22,-1.80
2014,11,14,07,23,-1.80
2014,11,14,07,24,-1.80
2014,11,14,07,25,-1.80
2014,11,14,07,26,-1.80
2014,11,14,07,27,-1.80
2014,11,14,07,28,-1.80
2014,11,14,07,29,-1.80
2014,11,14,07,30,-1.80
2014,11,14,07,31,-1.80
2014,11,14,07,32,-1.80
2014,11,14,07,33,-1.80
2014,11,14,07,34,-1.80
2014,11,14,07,35,-1.80
2014,11,14,07,36,-1.80
2014,11,14,07,37,-1.80
2014,11,14,07,38,-1.70
2014,11,14,07,39,-1.70
2014,11,14,07,40,-1.70
2014,11,14,07,41,-1.70
2014,11,14,07,42,-1.60
2014,11,14,07,43,-1.60
2014,11,14,07,44,-1.60
2014,11,14,07,45,-1.60
2014,11,14,07,46,-1.70
2014,11,14,07,47,-1.70
2014,11,14,07,48,-1.70
2014,11,14,07,49,-1.60
2014,11,14,07,50,-1.60
2014,11,14,07,51,-1.60
2014,11,14,07,52,-1.70
2014,11,14,07,53,-1.70
2014,11,14,07,54,-1.70
2014,11,14,07,55,-1.70
2014,11,14,07,56,-1.70
2014,11,14,07,57,-1.70
2014,11,14,07,58,-1.70
2014,11,14,07,59,-1.70
2014,11,14,08,00,-1.70
2014,11,14,08,01,-1.70
2014,11,14,08,02,-1.70
2014,11,14,08,03,-1.70
2014,11,14,08,04,-1.70
2014,11,14,08,05,-1.70
2014,11,14,08,06,-1.70
2014,11,14,08,07,-1.80
2014,11,14,08,08,-1.80
2014,11,14,08,09,-1.80
2014,11,14,08,10,-1.80
2014,11,14,08,11,-1.70
2014,11,14,08,12,-1.70
2014,11,14,08,13,-1.70
2014,11,14,08,14,-1.70
2014,11,14,08,15,-1.70
2014,11,14,08,16,-1.70
2014,11,14,08,17,-1.70
2014,11,14,08,18,-1.70
2014,11,14,08,19,-1.70
2014,11,14,08,20,-1.80
2014,11,14,08,21,-1.80
2014,11,14,08,22,-1.80
2014,11,14,08,23,-1.80
2014,11,14,08,24,-1.80
2014,11,14,08,25,-1.80
2014,11,14,08,26,-1.70
2014,11,14,08,27,-1.70
2014,11,14,08,28,-1.70
2014,11,14,08,29,-1.70
2014,11,14,08,30,-1.70
2014,11,14,08,31,-1.70
2014,11,14,08,32,-1.70
2014,11,14,08,33,-1.70
2014,11,14,08,34,-1.60
2014,11,14,08,35,-1.60
2014,11,14,08,36,-1.60
2014,11,14,08,37,-1.60
2014,11,14,08,38,-1.70
2014,11,14,08,39,-1.70
2014,11,14,08,40,-1.70
2014,11,14,08,41,-1.60
2014,11,14,08,42,-1.60
2014,11,14,08,43,-1.50
2014,11,14,08,44,-1.50
2014,11,14,08,45,-1.50
2014,11,14,08,46,-1.50
2014,11,14,08,47,-1.50
2014,11,14,08,48,-1.50
2014,11,14,08,49,-1.50
2014,11,14,08,50,-1.50
2014,11,14,08,51,-1.50
2014,11,14,08,52,-1.50
2014,11,14,08,53,-1.50
2014,11,14,08,54,-1.50
2014,11,14,08,55,-1.60
2014,11,14,08,56,-1.60
2014,11,14,08,57,-1.60
2014,11,14,08,58,-1.50
2014,11,14,08,59,-1.50
2014,11,14,09,00,-1.50
2014,11,14,09,01,-1.50
2014,11,14,09,02,-1.40
2014,11,14,09,03,-1.40
2014,11,14,09,04,-1.40
2014,11,14,09,05,-1.40
2014,11,14,09,06,-1.40
2014,11,14,09,07,-1.40
2014,11,14,09,08,-1.30
2014,11,14,09,09,-1.30
2014,11,14,09,10,-1.30
2014,11,14,09,11,-1.30
2014,11,14,09,12,-1.30
2014,11,14,09,13,-1.20
2014,11,14,09,14,-1.20
2014,11,14,09,15,-1.20
2014,11,14,09,16,-1.20
2014,11,14,09,17,-1.20
2014,11,14,09,18,-1.10
2014,11,14,09,19,-1.00
2014,11,14,09,20,-0.90
2014,11,14,09,21,-0.90
2014,11,14,09,22,-0.80
2014,11,14,09,23,-0.80
2014,11,14,09,24,-0.70
2014,11,14,09,25,-0.70
2014,11,14,09,26,-0.60
2014,11,14,09,27,-0.60
2014,11,14,09,28,-0.50
2014,11,14,09,29,-0.50
2014,11,14,09,30,-0.50
2014,11,14,09,31,-0.50
2014,11,14,09,32,-0.40
2014,11,14,09,33,-0.30
2014,11,14,09,34,-0.30
2014,11,14,09,35,-0.20
2014,11,14,09,36,-0.10
2014,11,14,09,37,0.00
2014,11,14,09,38,0.10
2014,11,14,09,39,0.20
2014,11,14,09,40,0.30
2014,11,14,09,41,0.40
2014,11,14,09,42,0.60
2014,11,14,09,43,0.70
2014,11,14,09,44,0.80
2014,11,14,09,45,0.90
2014,11,14,09,46,0.90
2014,11,14,09,47,1.00
2014,11,14,09,48,1.10
2014,11,14,09,49,1.30
2014,11,14,09,50,1.30
2014,11,14,09,51,1.30
2014,11,14,09,52,1.40
2014,11,14,09,53,1.50
2014,11,14,09,54,1.60
2014,11,14,09,55,1.70
2014,11,14,09,56,1.70
2014,11,14,09,57,1.80
2014,11,14,09,58,1.90
2014,11,14,09,59,1.90
2014,11,14,10,00,1.80
2014,11,14,10,01,1.90
2014,11,14,10,02,1.90
2014,11,14,10,03,1.90
2014,11,14,10,04,1.90
2014,11,14,10,05,2.00
2014,11,14,10,06,2.30
2014,11,14,10,07,2.60
2014,11,14,10,08,2.90
2014,11,14,10,09,3.20
2014,11,14,10,10,3.40
2014,11,14,10,11,3.30
2014,11,14,10,12,3.40
2014,11,14,10,13,3.40
2014,11,14,10,14,3.50
2014,11,14,10,15,3.50
2014,11,14,10,16,3.60
2014,11,14,10,17,3.70
2014,11,14,10,18,3.80
2014,11,14,10,19,3.80
2014,11,14,10,20,3.90
2014,11,14,10,21,3.90
2014,11,14,10,22,3.80
2014,11,14,10,23,3.70
2014,11,14,10,24,3.50
2014,11,14,10,25,3.50
2014,11,14,10,26,3.60
2014,11,14,10,27,3.60
2014,11,14,10,28,3.70
2014,11,14,10,29,3.70
2014,11,14,10,30,3.80
2014,11,14,10,31,3.90
2014,11,14,10,32,3.90
2014,11,14,10,33,4.00
2014,11,14,10,34,4.00
2014,11,14,10,35,4.10
2014,11,14,10,36,4.10
2014,11,14,10,37,4.10
2014,11,14,10,38,4.10
2014,11,14,10,39,4.20
2014,11,14,10,40,4.20
2014,11,14,10,41,4.20
2014,11,14,10,42,4.20
2014,11,14,10,43,4.10
2014,11,14,10,44,4.20
2014,11,14,10,45,4.20
2014,11,14,10,46,4.20
2014,11,14,10,47,4.20
2014,11,14,10,48,4.20
2014,11,14,10,49,4.30
2014,11,14,10,50,4.40
2014,11,14,10,51,4.50
2014,11,14,10,52,4.60
2014,11,14,10,53,4.70
2014,11,14,10,54,4.60
2014,11,14,10,55,4.60
2014,11,14,10,56,4.60
2014,11,14,10,57,4.60
2014,11,14,10,58,4.60
2014,11,14,10,59,4.70
2014,11,14,11,00,4.70
2014,11,14,11,01,4.80
2014,11,14,11,02,4.80
2014,11,14,11,03,4.70
2014,11,14,11,04,4.70
2014,11,14,11,05,4.70
2014,11,14,11,06,4.70
2014,11,14,11,07,4.70
2014,11,14,11,08,4.70
2014,11,14,11,09,4.70
2014,11,14,11,10,4.70
2014,11,14,11,11,4.80
2014,11,14,11,12,4.80
2014,11,14,11,13,4.90
2014,11,14,11,14,4.90
2014,11,14,11,15,4.90
2014,11,14,11,16,4.90
2014,11,14,11,17,4.90
2014,11,14,11,18,4.90
2014,11,14,11,19,5.00
2014,11,14,11,20,5.00
2014,11,14,11,21,5.00
2014,11,14,11,22,5.10
2014,11,14,11,23,5.10
2014,11,14,11,24,5.10
2014,11,14,11,25,5.20
2014,11,14,11,26,5.20
2014,11,14,11,27,5.30
2014,11,14,11,28,5.30
2014,11,14,11,29,5.30
2014,11,14,11,30,5.30
2014,11,14,11,31,5.30
2014,11,14,11,32,5.30
2014,11,14,11,33,5.40
2014,11,14,11,34,5.40
2014,11,14,11,35,5.40
2014,11,14,11,36,5.40
2014,11,14,11,37,5.40
2014,11,14,11,38,5.40
2014,11,14,11,39,5.40
2014,11,14,11,40,5.40
2014,11,14,11,41,5.30
2014,11,14,11,42,5.30
2014,11,14,11,43,5.30
2014,11,14,11,44,5.30
2014,11,14,11,45,5.30
2014,11,14,11,46,5.30
2014,11,14,11,47,5.40
2014,11,14,11,48,5.40
2014,11,14,11,49,5.50
2014,11,14,11,50,5.60
2014,11,14,11,51,5.60
2014,11,14,11,52,5.50
2014,11,14,11,53,5.50
2014,11,14,11,54,5.50
2014,11,14,11,55,5.50
2014,11,14,11,56,5.40
2014,11,14,11,57,5.40
2014,11,14,11,58,5.40
2014,11,14,11,59,5.40
2014,11,14,12,00,5.40
2014,11,14,12,01,5.40
2014,11,14,12,02,5.40
2014,11,14,12,03,5.50
2014,11,14,12,04,5.50
2014,11,14,12,05,5.50
2014,11,14,12,06,5.50
2014,11,14,12,07,5.60
2014,11,14,12,08,5.60
2014,11,14,12,09,5.60
2014,11,14,12,10,5.60
2014,11,14,12,11,5.70
2014,11,14,12,12,5.70
2014,11,14,12,13,5.70
2014,11,14,12,14,5.70
2014,11,14,12,15,5.70
2014,11,14,12,16,5.70
2014,11,14,12,17,5.70
2014,11,14,12,18,5.60
2014,11,14,12,19,5.60
2014,11,14,12,20,5.60
2014,11,14,12,21,5.50
2014,11,14,12,22,5.50
2014,11,14,12,23,5.50
2014,11,14,12,24,5.50
2014,11,14,12,25,5.50
2014,11,14,12,26,5.50
2014,11,14,12,27,5.40
2014,11,14,12,28,5.40
2014,11,14,12,29,5.40
2014,11,14,12,30,5.30
2014,11,14,12,31,5.30
2014,11,14,12,32,5.20
2014,11,14,12,33,5.10
2014,11,14,12,34,5.10
2014,11,14,12,35,5.00
2014,11,14,12,36,5.00
2014,11,14,12,37,4.90
2014,11,14,12,38,4.80
2014,11,14,12,39,4.80
2014,11,14,12,40,4.70
2014,11,14,12,41,4.60
2014,11,14,12,42,4.60
2014,11,14,12,43,4.60
2014,11,14,12,44,4.60
2014,11,14,12,45,4.60
2014,11,14,12,46,4.60
2014,11,14,12,47,4.60
2014,11,14,12,48,4.60
2014,11,14,12,49,4.60
2014,11,14,12,50,4.60
2014,11,14,12,51,4.60
2014,11,14,12,52,4.60
2014,11,14,12,53,4.70
2014,11,14,12,54,4.80
2014,11,14,12,55,4.80
2014,11,14,12,56,4.80
2014,11,14,12,57,4.80
2014,11,14,12,58,4.80
2014,11,14,12,59,4.80
2014,11,14,13,00,4.80
2014,11,14,13,01,4.70
2014,11,14,13,02,4.70
2014,11,14,13,03,4.70
2014,11,14,13,04,4.70
2014,11,14,13,05,4.70
2014,11,14,13,06,4.70
2014,11,14,13,07,4.60
2014,11,14,13,08,4.70
2014,11,14,13,09,4.60
2014,11,14,13,10,4.60
2014,11,14,13,11,4.60
2014,11,14,13,12,4.60
2014,11,14,13,13,4.60
2014,11,14,13,14,4.50
2014,11,14,13,15,4.50
2014,11,14,13,16,4.50
2014,11,14,13,17,4.50
2014,11,14,13,18,4.50
2014,11,14,13,19,4.50
2014,11,14,13,20,4.50
2014,11,14,13,21,4.50
2014,11,14,13,22,4.40
2014,11,14,13,23,4.40
2014,11,14,13,24,4.40
2014,11,14,13,25,4.40
2014,11,14,13,26,4.40
2014,11,14,13,27,4.40
2014,11,14,13,28,4.40
2014,11,14,13,29,4.40
2014,11,14,13,30,4.40
2014,11,14,13,31,4.30
2014,11,14,13,32,4.30
2014,11,14,13,33,4.30
2014,11,14,13,34,4.30
2014,11,14,13,35,4.30
2014,11,14,13,36,4.30
2014,11,14,13,37,4.30
2014,11,14,13,38,4.30
2014,11,14,13,39,4.40
2014,11,14,13,40,4.40
2014,11,14,13,41,4.40
2014,11,14,13,42,4.40
2014,11,14,13,43,4.40
2014,11,14,13,44,4.40
2014,11,14,13,45,4.40
2014,11,14,13,46,4.30
2014,11,14,13,47,4.30
2014,11,14,13,48,4.30
2014,11,14,13,49,4.30
2014,11,14,13,50,4.30
2014,11,14,13,51,4.30
2014,11,14,13,52,4.20
2014,11,14,13,53,4.20
2014,11,14,13,54,4.20
2014,11,14,13,55,4.10
2014,11,14,13,56,4.20
2014,11,14,13,57,4.20
2014,11,14,13,58,4.20
2014,11,14,13,59,4.20
2014,11,14,14,00,4.20
2014,11,14,14,01,4.30
2014,11,14,14,02,4.20
2014,11,14,14,03,4.20
2014,11,14,14,04,4.20
2014,11,14,14,05,4.20
2014,11,14,14,06,4.20
2014,11,14,14,07,4.20
2014,11,14,14,08,4.30
2014,11,14,14,09,4.30
2014,11,14,14,10,4.20
2014,11,14,14,11,4.20
2014,11,14,14,12,4.20
2014,11,14,14,13,4.20
2014,11,14,14,14,4.20
2014,11,14,14,15,4.10
2014,11,14,14,16,4.10
2014,11,14,14,17,4.00
2014,11,14,14,18,4.00
2014,11,14,14,19,3.90
2014,11,14,14,20,3.90
2014,11,14,14,21,3.90
2014,11,14,14,22,3.80
2014,11,14,14,23,3.80
2014,11,14,14,24,3.70
2014,11,14,14,25,3.70
2014,11,14,14,26,3.70
2014,11,14,14,27,3.60
2014,11,14,14,28,3.60
2014,11,14,14,29,3.60
2014,11,14,14,30,3.50
2014,11,14,14,31,3.50
2014,11,14,14,32,3.50
2014,11,14,14,33,3.50
2014,11,14,14,34,3.40
2014,11,14,14,35,3.40
2014,11,14,14,36,3.40
2014,11,14,14,37,3.30
2014,11,14,14,38,3.40
2014,11,14,14,39,3.40
2014,11,14,14,40,3.40
2014,11,14,14,41,3.50
2014,11,14,14,42,3.60
2014,11,14,14,43,3.70
2014,11,14,14,44,3.80
2014,11,14,14,45,3.80
2014,11,14,14,46,3.80
2014,11,14,14,47,3.80
2014,11,14,14,48,3.70
2014,11,14,14,49,3.70
2014,11,14,14,50,3.70
2014,11,14,14,51,3.60
2014,11,14,14,52,3.60
2014,11,14,14,53,3.50
2014,11,14,14,54,3.50
2014,11,14,14,55,3.40
2014,11,14,14,56,3.30
2014,11,14,14,57,3.20
2014,11,14,14,58,3.20
2014,11,14,14,59,3.10
2014,11,14,15,00,3.10
2014,11,14,15,01,3.00
2014,11,14,15,02,3.00
2014,11,14,15,03,3.00
2014,11,14,15,04,2.90
2014,11,14,15,05,2.90
2014,11,14,15,06,2.90
2014,11,14,15,07,2.90
2014,11,14,15,08,2.80
2014,11,14,15,09,2.80
2014,11,14,15,10,2.80
2014,11,14,15,11,2.70
2014,11,14,15,12,2.70
2014,11,14,15,13,2.70
2014,11,14,15,14,2.60
2014,11,14,15,15,2.60
2014,11,14,15,16,2.60
2014,11,14,15,17,2.50
2014,11,14,15,18,2.50
2014,11,14,15,19,2.40
2014,11,14,15,20,2.40
2014,11,14,15,21,2.30
2014,11,14,15,22,2.30
2014,11,14,15,23,2.30
2014,11,14,15,24,2.30
2014,11,14,15,25,2.20
2014,11,14,15,26,2.10
2014,11,14,15,27,2.10
2014,11,14,15,28,2.00
2014,11,14,15,29,1.90
2014,11,14,15,30,2.00
2014,11,14,15,31,1.90
2014,11,14,15,32,1.80
2014,11,14,15,33,1.80
2014,11,14,15,34,1.80
2014,11,14,15,35,1.70
2014,11,14,15,36,1.70
2014,11,14,15,37,1.60
2014,11,14,15,38,1.60
2014,11,14,15,39,1.60
2014,11,14,15,40,1.60
2014,11,14,15,41,1.50
2014,11,14,15,42,1.50
2014,11,14,15,43,1.50
2014,11,14,15,44,1.40
2014,11,14,15,45,1.30
2014,11,14,15,46,1.30
2014,11,14,15,47,1.30
2014,11,14,15,48,1.30
2014,11,14,15,49,1.30
2014,11,14,15,50,1.30
2014,11,14,15,51,1.30
2014,11,14,15,52,1.30
2014,11,14,15,53,1.20
2014,11,14,15,54,1.20
2014,11,14,15,55,1.20
2014,11,14,15,56,1.20
2014,11,14,15,57,1.30
2014,11,14,15,58,1.30
2014,11,14,15,59,1.20
2014,11,14,16,00,1.20
2014,11,14,16,01,1.10
2014,11,14,16,02,1.10
2014,11,14,16,03,1.00
2014,11,14,16,04,1.00
2014,11,14,16,05,1.00
2014,11,14,16,06,1.00
2014,11,14,16,07,1.00
2014,11,14,16,08,1.00
2014,11,14,16,09,1.00
2014,11,14,16,10,0.90
2014,11,14,16,11,0.90
2014,11,14,16,12,0.90
2014,11,14,16,13,0.90
2014,11,14,16,14,0.90
2014,11,14,16,15,0.80
2014,11,14,16,16,0.80
2014,11,14,16,17,0.80
2014,11,14,16,18,0.80
2014,11,14,16,19,0.80
2014,11,14,16,20,0.80
2014,11,14,16,21,0.80
2014,11,14,16,22,0.80
2014,11,14,16,23,0.80
2014,11,14,16,24,0.70
2014,11,14,16,25,0.70
2014,11,14,16,26,0.70
2014,11,14,16,27,0.70
2014,11,14,16,28,0.70
2014,11,14,16,29,0.70
2014,11,14,16,30,0.70
2014,11,14,16,31,0.60
2014,11,14,16,32,0.60
2014,11,14,16,33,0.50
2014,11,14,16,34,0.50
2014,11,14,16,35,0.50
2014,11,14,16,36,0.60
2014,11,14,16,37,0.60
2014,11,14,16,38,0.50
2014,11,14,16,39,0.50
2014,11,14,16,40,0.50
2014,11,14,16,41,0.50
2014,11,14,16,42,0.40
2014,11,14,16,43,0.40
2014,11,14,16,44,0.40
2014,11,14,16,45,0.30
2014,11,14,16,46,0.30
2014,11,14,16,47,0.20
2014,11,14,16,48,0.20
2014,11,14,16,49,0.20
2014,11,14,16,50,0.10
2014,11,14,16,51,0.20
2014,11,14,16,52,0.20
2014,11,14,16,53,0.10
2014,11,14,16,54,0.10
2014,11,14,16,55,0.10
2014,11,14,16,56,0.10
2014,11,14,16,57,0.10
2014,11,14,16,58,0.10
2014,11,14,16,59,0.00
2014,11,14,17,00,0.00
2014,11,14,17,01,-0.10
2014,11,14,17,02,-0.10
2014,11,14,17,03,-0.10
2014,11,14,17,04,-0.10
2014,11,14,17,05,-0.10
2014,11,14,17,06,-0.10
2014,11,14,17,07,-0.10
2014,11,14,17,08,-0.10
2014,11,14,17,09,-0.20
2014,11,14,17,10,-0.20
2014,11,14,17,11,-0.20
2014,11,14,17,12,-0.10
2014,11,14,17,13,-0.10
2014,11,14,17,14,-0.10
2014,11,14,17,15,-0.10
2014,11,14,17,16,-0.10
2014,11,14,17,17,-0.10
2014,11,14,17,18,-0.10
2014,11,14,17,19,-0.10
2014,11,14,17,20,-0.20
2014,11,14,17,21,-0.20
2014,11,14,17,22,-0.20
2014,11,14,17,23,-0.30
2014,11,14,17,24,-0.30
2014,11,14,17,25,-0.30
2014,11,14,17,26,-0.30
2014,11,14,17,27,-0.30
2014,11,14,17,28,-0.40
2014,11,14,17,29,-0.40
2014,11,14,17,30,-0.40
2014,11,14,17,31,-0.40
2014,11,14,17,32,-0.40
2014,11,14,17,33,-0.50
2014,11,14,17,34,-0.50
2014,11,14,17,35,-0.50
2014,11,14,17,36,-0.50
2014,11,14,17,37,-0.50
2014,11,14,17,38,-0.50